Probability
0 0 1 4 5 3 1 0 0 0 0 0 0 1 3 5 5 4 9 21 32 35 33 34 34 31 27 24 23 21 19 16 12 11 11 8 4 3 3 3 3 3 3 3 3 3 3 3 2
0 0 1 4 4 2 1 0 0 0 0 0 0 1 4 8 8 7 13 25 35 34 30 32 35 34 29 25 23 21 19 17 14 13 12 10 6 4 3 3 3 3 3 3 3 3 3 3 3
0 0 2 3 2 1 0 0 0 0 0 0 0 2 5 9 10 11 17 29 36 33 30 33 38 37 32 28 24 20 19 17 16 14 14 13 9 5 3 3 4 4 4 4 3 3 3 3 3
1 1 2 1 0 0 0 0 0 0 0 0 1 3 7 10 11 14 22 31 34 33 32 36 41 39 34 29 24 19 17 17 17 15 15 15 12 8 5 4 5 6 6 5 4 3 3 3 3
2 3 2 1 0 0 0 0 0 0 0 0 1 6 10 11 11 16 24 30 33 33 33 36 39 40 35 29 23 18 17 17 17 16 15 16 15 11 7 6 6 6 6 6 4 3 3 3 3
4 4 2 0 0 0 0 0 0 0 0 0 2 7 11 12 13 18 25 30 33 33 33 33 35 37 35 30 24 20 17 17 17 16 16 16 15 13 10 8 7 7 7 6 4 3 3 3 3
3 2 1 0 0 0 0 0 0 0 0 1 2 8 13 14 17 21 28 33 36 34 31 29 29 30 31 27 22 19 18 17 16 16 15 15 14 12 10 9 8 7 7 6 5 4 3 3 3
1 1 0 0 0 0 0 0 0 1 1 2 4 9 14 17 20 26 32 37 39 36 30 26 24 24 25 22 19 17 17 16 15 14 13 12 11 11 10 9 9 7 7 6 6 4 3 3 2
0 0 0 0 0 0 0 0 1 2 3 3 5 10 16 18 22 29 34 38 40 35 29 25 23 22 21 18 16 16 15 15 14 12 10 9 9 10 10 10 9 7 6 6 5 4 2 1 1
0 0 0 1 1 1 0 0 1 2 3 4 6 10 14 17 22 28 33 36 36 33 29 26 23 21 20 18 17 16 15 14 12 11 9 9 9 10 10 10 9 7 6 5 4 2 1 0 0
0 0 1 2 2 1 0 0 1 2 2 3 6 8 11 14 19 25 29 30 31 31 30 28 25 22 21 20 18 17 15 13 11 10 9 8 9 9 10 9 8 5 4 3 2 1 0 0 0
0 1 2 2 1 0 0 0 1 1 2 3 6 9 11 12 16 21 23 24 25 28 30 29 27 25 23 21 19 17 15 12 10 9 8 8 8 9 9 8 7 4 2 1 1 0 0 0 0
0 1 1 1 0 0 0 0 1 2 2 4 7 10 11 11 13 16 18 20 21 25 28 29 28 28 25 21 19 17 13 9 9 9 8 7 8 8 8 7 6 4 1 0 0 0 0 0 0
0 0 0 0 0 0 0 0 1 1 3 4 7 10 9 9 11 12 15 18 19 21 25 27 28 28 25 20 18 16 13 9 8 9 9 8 8 7 6 6 5 2 0 0 0 0 0 0 0
0 0 0 0 0 0 0 0 0 1 2 3 5 8 9 8 9 10 12 15 17 18 21 23 24 23 21 20 18 16 13 11 10 10 10 9 7 5 5 6 5 2 0 0 0 0 0 0 0
0 0 0 0 0 0 0 0 0 0 1 1 3 7 9 9 9 9 11 13 14 16 17 18 19 18 17 18 17 15 13 12 11 10 10 8 6 4 4 5 4 2 1 1 0 0 0 0 0
0 0 0 0 0 0 0 0 0 0 0 0 2 6 8 9 9 9 10 12 13 13 13 13 13 13 13 15 15 14 13 12 10 9 7 5 3 3 3 4 3 2 2 2 1 0 0 0 0
0 0 0 0 0 0 0 0 0 0 0 0 2 5 7 9 10 10 10 12 11 10 10 10 9 8 9 11 13 13 12 10 9 7 4 3 1 1 2 3 3 2 2 2 1 0 0 0 0
0 0 0 0 0 0 0 0 0 0 0 0 1 4 6 7 9 9 10 10 10 7 7 8 7 6 7 8 10 11 10 9 7 5 3 3 1 0 1 1 2 2 2 1 1 1 0 0 0
0 0 0 0 0 0 0 0 0 0 0 0 1 4 6 6 6 8 9 9 7 5 6 7 6 6 6 6 7 7 8 7 6 4 3 3 2 1 0 0 1 1 2 2 2 2 1 0 0
0 0 0 0 0 0 0 0 0 0 0 0 1 3 4 4 4 7 8 8 6 4 5 6 5 5 5 4 4 4 5 5 4 3 3 3 2 1 0 0 0 1 2 3 2 2 1 0 0
0 0 0 0 0 0 0 0 0 0 0 0 1 3 3 3 4 6 6 5 4 4 4 5 4 3 2 1 2 3 3 4 3 3 3 3 1 0 0 0 0 1 1 1 1 1 0 0 0
0 0 0 0 0 0 0 0 0 0 0 1 2 3 3 3 5 6 5 4 3 4 5 4 2 1 0 0 1 2 3 3 3 3 3 2 1 0 0 0 0 0 0 0 0 0 0 0 0
0 0 0 0 0 0 0 0 0 0 0 1 2 3 3 3 5 5 4 3 3 4 5 3 1 0 0 0 0 1 3 3 3 3 3 2 1 0 0 0 0 0 0 0 0 0 0 0 0
0 0 0 0 0 0 0 0 0 0 0 1 2 2 2 3 4 4 3 2 1 3 4 3 1 0 0 0 0 1 2 3 3 3 3 2 1 0 0 0 0 0 0 0 0 0 0 0 0
0 0 0 0 0 0 0 0 0 0 0 0 1 1 0 1 3 3 2 1 1 1 2 1 0 0 0 0 0 0 1 3 3 3 3 2 1 0 0 0 0 0 0 0 0 0 0 0 0
0 0 0 0 0 0 0 0 0 0 0 0 0 0 0 1 2 2 1 1 0 0 0 0 0 0 0 0 0 0 1 2 3 3 3 3 1 0 0 0 0 0 0 0 0 0 0 0 0
0 0 0 0 0 0 0 0 0 0 0 0 0 0 0 0 1 1 0 0 0 0 0 0 0 0 0 0 0 0 1 2 3 3 3 3 2 0 0 0 0 0 0 0 0 0 0 0 0
0 0 0 0 0 0 0 0 0 0 0 0 0 0 0 0 0 0 0 0 0 0 0 0 0 0 0 0 0 0 0 1 3 3 3 2 1 0 0 0 0 0 0 0 0 0 0 0 0
0 0 0 0 0 0 0 0 0 0 0 0 0 0 0 0 0 0 0 0 0 0 0 0 0 0 0 0 0 0 0 1 2 3 3 1 0 0 0 0 0 0 0 0 0 0 0 0 0
Wind_Speed
12 10 6 2 3 5 10 8 6 4 5 3 2 2 1 3 3 5 3 6 11 12 12 12 12 12 12 11 11 11 11 11 11 11 11 11 11 10 10 10 10 10 10 10 10 10 10 10 10
10 8 3 3 5 8 9 9 8 6 4 2 3 3 2 3 6 7 4 7 11 12 11 10 11 11 11 11 11 11 11 11 11 11 11 10 10 10 10 10 10 10 10 10 10 10 10 10 9
10 7 3 4 7 9 7 4 5 4 1 1 0 2 2 3 5 4 5 8 10 10 9 10 11 11 11 11 11 11 11 10 10 10 10 10 10 10 10 10 9 9 9 9 9 9 9 9 9
4 3 4 6 12 11 8 4 3 2 1 1 0 1 4 5 4 5 6 7 9 9 9 10 10 11 11 11 11 10 10 10 10 10 10 10 10 10 10 10 9 9 9 9 9 9 9 8 8
3 3 5 8 13 11 8 5 4 3 2 1 1 1 3 4 6 7 6 6 8 9 9 10 10 11 11 11 11 10 9 9 9 10 10 10 10 10 10 9 9 8 8 8 8 8 8 8 7
3 4 6 10 12 10 8 4 3 3 2 1 1 1 2 3 5 4 5 6 7 8 9 9 10 10 9 10 10 9 9 8 8 9 9 10 10 10 9 9 8 8 8 8 8 8 8 7 6
3 4 8 10 10 9 6 1 2 3 3 1 3 1 3 3 3 3 4 6 7 8 8 7 7 8 9 8 9 9 8 8 8 8 9 9 9 9 9 8 8 7 7 7 7 7 7 6 5
3 3 7 9 10 8 3 2 2 3 3 3 3 1 2 2 2 3 4 5 6 6 7 6 5 5 6 6 7 8 8 8 8 8 8 8 8 8 8 7 7 7 7 7 7 7 6 5 4
2 4 7 8 7 5 3 3 3 3 2 2 3 3 2 4 3 3 4 4 4 5 5 5 5 4 5 5 7 7 8 8 7 7 8 7 5 5 5 6 6 7 7 7 6 6 5 4 2
3 5 8 4 5 5 5 3 4 3 3 2 3 3 4 4 3 3 4 4 4 4 4 4 4 4 4 4 5 4 5 5 4 4 5 3 3 4 5 6 6 6 6 6 5 4 3 2 1
4 6 5 5 6 5 5 4 5 4 4 3 2 0 2 2 2 2 2 3 4 4 3 3 3 4 3 3 3 2 2 3 3 4 4 3 3 3 4 3 3 4 4 3 3 2 1 1 1
5 6 6 5 5 6 6 5 4 4 5 4 1 1 2 3 3 3 2 2 2 3 3 2 3 3 3 2 3 3 2 2 2 3 4 2 2 3 3 2 2 2 2 2 2 1 1 1 1
7 6 5 4 5 5 5 5 5 5 5 4 1 1 3 2 3 3 2 1 1 2 2 2 3 3 3 2 2 2 2 2 3 2 3 2 2 3 3 2 2 2 2 2 1 1 1 1 1
4 5 6 5 6 5 5 7 6 5 4 3 1 2 2 2 2 2 1 1 1 1 2 2 3 3 3 2 2 2 2 2 2 2 2 2 2 3 3 2 2 2 2 1 1 1 1 1 1
5 6 7 6 6 5 4 6 7 6 3 3 3 3 3 2 2 2 1 1 2 1 2 2 2 2 2 2 3 2 2 3 2 2 2 2 2 2 2 3 2 2 1 1 1 1 1 1 1
5 5 5 3 4 4 4 7 5 3 3 4 4 2 2 2 2 1 1 1 1 0 1 1 1 1 1 2 2 2 2 2 2 2 2 2 2 2 2 2 2 2 2 1 2 2 1 1 1
4 4 5 5 4 4 5 7 5 3 4 4 3 2 2 2 1 0 1 1 0 1 1 1 1 1 1 2 2 2 2 3 2 2 2 1 2 2 2 2 2 3 2 1 2 2 2 1 0
2 4 5 6 3 4 6 7 4 3 4 4 4 2 2 1 1 1 1 1 1 1 1 1 1 2 2 2 2 2 2 2 2 2 2 1 1 2 1 2 3 3 2 2 2 2 1 1 1
5 6 8 7 5 5 6 7 6 4 3 3 3 3 2 2 1 2 1 1 1 1 1 1 1 1 2 1 1 1 1 1 1 1 2 2 1 1 2 1 2 2 3 3 3 2 2 1 1
6 6 8 7 5 6 6 8 6 5 5 4 4 3 3 2 1 1 2 1 1 0 0 1 1 1 1 0 0 1 2 1 1 1 1 1 1 1 1 2 2 2 2 3 2 2 1 1 1
6 6 6 7 8 7 5 6 6 4 3 3 3 3 2 2 2 2 2 1 0 1 0 1 1 1 1 1 2 2 2 1 1 1 1 1 0 0 1 2 2 3 3 3 2 2 2 1 1
6 5 8 8 5 4 3 4 5 5 4 4 3 2 2 2 2 1 1 2 1 0 0 1 2 1 1 2 2 2 2 2 1 1 1 0 0 0 1 1 2 3 3 3 3 2 1 2 2
6 7 8 8 5 4 4 3 4 5 4 4 3 2 2 2 2 2 2 2 1 1 1 1 1 2 2 1 2 2 1 1 1 1 1 1 0 0 1 1 2 2 2 3 3 2 2 2 2
6 6 6 4 2 4 4 3 3 2 3 3 1 1 1 1 2 2 2 2 1 1 2 2 2 2 2 2 2 1 1 1 2 1 1 1 0 0 0 1 2 2 2 2 2 2 2 2 2
3 2 2 1 2 3 3 3 3 1 1 1 2 0 1 2 2 2 2 2 2 1 2 2 2 1 1 1 2 1 1 1 2 2 1 1 1 1 0 1 1 1 2 2 2 2 2 2 3
2 1 1 2 3 3 2 3 2 2 2 2 2 2 3 2 2 2 1 1 1 2 2 2 2 1 1 1 1 1 1 0 1 1 1 1 1 1 1 1 1 2 2 2 2 2 2 2 3
2 1 2 2 3 3 4 2 1 2 2 2 3 3 3 2 2 2 2 2 1 1 1 1 1 1 1 1 1 1 1 0 0 1 1 1 1 1 1 1 1 1 2 2 2 2 2 2 2
2 2 1 1 2 3 3 2 1 0 0 1 2 2 2 2 2 3 2 3 2 2 1 2 1 1 1 1 1 1 1 0 1 1 0 1 1 1 2 2 1 1 2 2 2 2 2 2 2
1 1 1 2 2 2 3 2 3 2 1 1 2 2 2 2 3 2 3 3 3 2 1 2 1 1 1 1 1 1 1 0 1 1 1 1 1 2 2 1 1 1 2 3 3 2 2 2 2
1 1 1 1 3 2 3 3 4 4 4 3 3 3 4 4 3 2 2 3 3 3 2 2 1 1 1 1 0 1 1 0 1 1 1 1 1 2 2 1 1 1 2 2 3 3 3 3 3
Wind_Direction
305 287 270 254 232 227 235 236 247 255 252 267 324 328 344 355 29 103 134 108 112 124 132 138 132 130 127 124 123 123 122 121 119 115 113 111 108 107 108 108 105 101 96 93 89 89 87 86 84
295 287 271 236 230 226 231 225 239 248 262 323 4 356 351 53 65 98 107 103 117 124 132 138 133 131 129 128 123 122 123 122 120 116 114 113 110 108 107 107 104 101 98 95 91 89 88 87 84
280 269 246 226 229 229 231 211 229 240 304 312 231 352 358 43 72 94 105 114 116 121 127 132 132 132 131 129 127 122 121 123 121 117 115 114 111 108 106 104 104 103 101 97 95 92 89 88 85
275 237 234 234 236 238 245 256 275 270 307 323 142 89 72 33 37 81 107 118 118 121 125 129 129 134 132 130 127 125 122 125 125 121 116 113 108 104 102 101 101 101 100 98 97 94 91 87 83
251 234 222 229 240 247 256 273 305 296 254 244 216 162 68 39 66 95 111 115 121 123 125 134 129 130 134 132 130 128 126 124 127 124 120 115 111 107 103 102 102 104 104 102 99 96 92 88 82
245 235 224 228 236 242 248 268 299 293 291 302 289 237 93 63 73 94 105 107 111 116 121 134 132 129 127 132 132 131 130 127 125 128 125 121 117 113 109 105 103 103 104 103 102 100 96 92 85
254 246 240 240 245 248 249 303 312 297 291 299 316 294 115 67 68 90 98 103 104 110 116 125 138 135 130 127 133 133 129 129 126 127 126 121 118 116 113 108 107 106 106 105 104 104 101 98 90
294 275 246 244 247 251 276 316 329 330 312 359 359 0 109 79 60 91 94 97 100 106 115 123 127 138 140 138 133 131 128 126 125 123 124 122 119 119 114 107 107 106 106 107 104 102 102 101 94
282 248 241 243 254 272 310 316 323 345 336 350 21 22 56 104 80 91 94 96 100 103 117 132 136 134 139 144 135 132 130 131 128 126 133 135 134 129 121 112 109 110 110 111 110 109 108 109 108
223 235 240 281 311 314 319 321 320 312 300 322 3 30 95 111 102 116 128 131 131 130 127 134 138 136 137 146 142 148 148 152 149 150 157 158 139 131 125 119 118 118 119 121 125 130 137 133 165
225 243 259 298 318 323 315 324 329 306 294 296 292 297 133 156 157 147 157 154 149 140 135 137 141 136 133 141 149 151 152 161 159 154 163 148 134 132 126 130 129 128 131 131 141 150 163 140 129
248 265 266 284 311 315 302 298 297 298 297 310 304 195 174 205 213 197 185 164 145 144 139 137 141 136 136 141 153 152 149 161 161 164 164 150 145 141 141 146 150 148 152 146 160 170 143 116 124
245 256 265 286 293 291 298 290 280 285 292 292 266 166 175 206 236 228 192 167 137 145 155 141 146 146 141 141 153 149 150 159 161 160 165 150 151 148 147 149 142 145 144 153 165 146 128 118 125
261 264 269 270 273 275 277 282 270 271 271 277 250 213 200 211 236 252 192 158 190 183 177 157 153 159 148 155 156 151 149 143 142 151 155 137 138 141 145 139 139 141 150 161 154 134 122 113 106
259 265 261 248 243 248 270 273 257 260 259 266 258 224 203 203 211 225 211 207 211 194 169 161 168 157 162 166 157 141 142 136 137 150 150 138 122 128 146 140 143 153 152 151 127 107 89 94 95
247 246 247 245 252 245 228 258 267 243 235 258 263 238 182 182 190 198 162 224 252 198 134 129 111 131 169 159 141 133 129 118 121 117 119 131 122 131 135 142 149 150 136 131 123 121 106 104 126
224 243 249 269 256 257 232 257 269 252 231 241 249 237 193 171 169 167 134 176 34 80 70 74 84 99 105 115 120 118 113 109 108 107 107 130 121 116 119 150 147 139 130 130 138 129 137 130 155
261 270 262 264 273 278 255 257 261 248 231 233 232 219 221 186 190 157 147 155 120 65 77 92 107 74 68 82 101 104 93 94 88 100 101 94 124 128 126 146 148 137 135 139 133 136 126 137 160
272 272 271 275 277 274 253 258 253 243 235 243 245 220 215 211 185 155 112 98 92 77 85 89 84 74 82 112 123 128 115 110 94 86 90 68 77 103 135 144 144 141 147 154 150 144 137 140 120
273 280 282 286 287 275 258 255 243 233 227 221 225 223 220 208 187 149 124 110 114 86 87 153 122 135 124 124 137 157 139 132 126 86 79 73 65 82 118 143 151 146 143 136 140 139 138 155 138
279 277 280 283 292 262 255 252 223 216 212 237 235 217 200 197 203 165 143 147 122 110 143 207 179 178 145 107 84 92 94 88 76 63 42 27 12 2 140 159 160 154 148 149 151 149 145 163 165
286 290 288 283 279 268 230 262 228 205 210 229 231 228 198 203 184 149 150 138 145 138 159 177 185 136 117 120 125 124 142 148 169 175 176 181 244 227 148 159 166 161 153 148 157 151 154 146 165
286 299 283 274 268 278 241 234 245 193 219 233 224 226 226 200 158 148 162 143 126 143 151 145 139 104 89 89 130 137 125 118 120 111 125 108 346 336 122 172 162 158 149 144 148 150 148 154 161
295 296 281 255 244 257 234 220 249 203 231 221 219 269 273 147 130 125 134 117 90 84 105 112 116 108 93 69 77 107 126 126 138 132 146 121 119 156 61 120 142 150 148 147 159 158 146 138 125
317 336 335 323 248 244 204 220 235 211 37 142 175 160 38 78 103 106 106 124 111 104 93 92 92 88 94 83 57 74 135 160 173 172 172 153 156 195 221 89 137 143 144 148 145 140 150 138 133
289 287 286 266 261 291 233 228 210 67 58 70 78 69 55 55 78 87 100 105 121 118 103 91 81 75 63 68 61 51 43 103 174 182 168 181 195 190 147 149 169 154 144 140 141 138 139 124 131
309 271 271 292 287 271 244 220 154 49 34 51 53 42 29 27 39 54 49 62 82 106 113 94 71 55 50 49 43 57 53 53 152 161 156 167 148 150 142 139 140 136 142 145 138 136 153 140 137
292 305 329 301 300 283 263 243 288 301 318 14 32 29 7 20 29 38 30 29 33 39 67 92 75 56 56 56 27 356 64 64 87 105 201 156 147 156 149 132 124 138 149 144 137 132 137 139 139
346 347 306 277 275 286 284 285 5 9 25 34 33 27 14 27 30 26 20 22 23 22 62 92 82 54 42 37 31 2 43 21 125 144 149 147 150 141 131 140 146 156 157 147 143 146 142 146 145
315 306 282 264 286 267 276 279 354 21 35 34 24 26 25 28 20 16 22 28 20 17 21 62 62 46 27 21 23 11 33 42 141 131 119 129 141 138 133 134 145 145 142 140 147 151 150 149 150